Date String (YYYY-MM-DD hh:mm:ss) UTC,Instrument flags,Ambient pressure (hPa),Sample flow (lpm),Bypass flow (lpm),Sample temperature (°C),Ambient temperature (°C),ASC tube jacket temperature (°C),LED temperature (°C),Box temperature (°C),Sample RH (%),Span deviation,Mass concentration (μg/m³),Mass concentration (μg/m³),Mass concentration (μg/m³)
DateTimeUTC,F1_M11,P_M11,Q1_M11,Q2_M11,T1_M11,T2_M11,T3_M11,T4_M11,T5_M11,U1_M11,ZSPAN_M11,X0_M11,X2_M11,X1_M11
2021-12-06 18:00:00,,0826.9,5.02,0.00,23.2,22.4,00.0,32.1,25.0,06.2,0000.0,0011.76,0003.57,0002.59
2021-12-06 18:01:00,,0826.9,4.99,0.00,23.2,22.4,00.0,32.2,25.0,06.2,0000.0,0011.66,0003.53,0002.57
2021-12-06 18:02:00,,0826.8,5.02,0.00,23.2,22.4,00.0,32.2,25.0,06.2,0000.0,0012.44,0003.52,0002.57
2021-12-06 18:03:00,,0826.8,4.98,0.00,23.2,22.3,00.0,32.2,25.0,06.3,0000.0,0012.15,0003.56,0002.57
2021-12-06 18:04:00,,0827.1,5.00,0.00,23.2,22.3,00.0,32.2,24.9,06.3,0000.0,0012.20,0003.53,0002.55
2021-12-06 18:05:00,,0827.0,5.01,0.00,23.2,22.3,00.0,32.2,24.9,06.3,0000.0,0011.63,0003.49,0002.53
2021-12-06 18:06:00,,0827.0,4.99,0.00,23.2,22.2,00.0,32.1,24.9,06.3,0000.0,0011.53,0003.47,0002.53
2021-12-06 18:07:00,,0827.0,5.01,0.00,23.1,22.2,00.0,32.1,24.9,06.3,0000.0,0012.18,0003.52,0002.54
2021-12-06 18:08:00,,0826.7,4.99,0.00,23.1,22.2,00.0,32.1,24.8,06.3,0000.0,0012.05,0003.57,0002.56
2021-12-06 18:09:00,,0826.6,5.00,0.00,23.1,22.2,00.0,32.1,24.8,06.3,0000.0,0011.87,0003.59,0002.57
2021-12-06 18:10:00,,0826.6,5.01,0.00,23.1,22.2,00.0,32.1,24.8,06.2,0000.0,0012.01,0003.59,0002.57
2021-12-06 18:11:00,,0826.7,4.99,0.00,23.1,22.1,00.0,32.1,24.8,06.2,0000.0,0011.77,0003.59,0002.58
2021-12-06 18:12:00,,0826.7,5.02,0.00,23.1,22.1,00.0,32.1,24.8,06.2,0000.0,0011.57,0003.62,0002.58
2021-12-06 18:13:00,,0826.8,4.99,0.00,23.1,22.1,00.0,32.1,24.8,06.2,0000.0,0010.77,0003.60,0002.57
2021-12-06 18:14:00,,0826.8,4.99,0.00,23.0,22.1,00.0,32.1,24.8,06.2,0000.0,0010.55,0003.59,0002.55
2021-12-06 18:15:00,,0826.6,5.01,0.00,23.0,22.1,00.0,32.1,24.8,06.2,0000.0,0010.50,0003.59,0002.52
2021-12-06 18:16:00,,0826.5,4.99,0.00,23.0,22.1,00.0,32.0,24.7,06.2,0000.0,0011.85,0003.61,0002.50
2021-12-06 18:17:00,,0826.5,5.01,0.00,23.0,22.1,00.0,32.0,24.7,06.2,0000.0,0012.57,0003.64,0002.48
2021-12-06 18:18:00,,0826.5,4.99,0.00,23.0,22.0,00.0,32.0,24.7,06.2,0000.0,0013.10,0003.63,0002.46
2021-12-06 18:19:00,,0826.5,5.00,0.00,22.9,22.0,00.0,32.0,24.6,06.3,0000.0,0013.82,0003.61,0002.44
2021-12-06 18:20:00,,0826.5,5.01,0.00,22.9,22.0,00.0,32.0,24.6,06.3,0000.0,0013.44,0003.58,0002.42
2021-12-06 18:21:00,,0826.5,5.00,0.00,22.9,22.0,00.0,32.0,24.6,06.4,0000.0,0013.70,0003.59,0002.42
2021-12-06 18:22:00,,0826.6,5.00,0.00,23.0,22.5,00.0,32.0,24.7,06.3,0000.0,0014.32,0003.59,0002.43
2021-12-06 18:23:00,,0826.7,5.00,0.00,23.1,23.2,00.0,32.0,25.0,06.3,0000.0,0015.44,0003.58,0002.42
2021-12-06 18:24:00,,0826.6,5.00,0.00,23.2,23.6,00.0,32.0,25.1,06.3,0000.0,0016.41,0003.59,0002.42
2021-12-06 18:25:00,,0826.6,5.00,0.00,23.3,23.5,00.0,32.1,25.2,06.3,0000.0,0017.01,0003.62,0002.43
2021-12-06 18:26:00,,0826.5,5.00,0.00,23.3,23.3,00.0,32.1,25.1,06.2,0000.0,0017.42,0003.62,0002.43
2021-12-06 18:27:00,,0826.5,4.99,0.00,23.3,23.1,00.0,32.1,25.1,06.3,0000.0,0017.44,0003.66,0002.43
2021-12-06 18:28:00,,0826.5,5.02,0.00,23.3,23.0,00.0,32.1,25.1,06.3,0000.0,0016.65,0003.67,0002.45
2021-12-06 18:29:00,,0826.5,4.99,0.00,23.3,22.9,00.0,32.1,25.1,06.3,0000.0,0015.94,0003.70,0002.47
2021-12-06 18:30:00,,0826.6,5.01,0.00,23.3,22.7,00.0,32.1,25.0,06.3,0000.0,0015.33,0003.72,0002.47
2021-12-06 18:31:00,,0826.5,5.00,0.00,23.2,22.7,00.0,32.1,25.0,06.3,0000.0,0015.34,0003.74,0002.48
2021-12-06 18:32:00,,0826.5,4.99,0.00,23.2,22.6,00.0,32.1,25.0,06.3,0000.0,0015.63,0003.73,0002.50
2021-12-06 18:33:00,,0826.5,5.01,0.00,23.3,22.6,00.0,32.1,25.0,06.3,0000.0,0015.45,0003.75,0002.52
2021-12-06 18:34:00,,0826.5,4.99,0.00,23.3,22.6,00.0,32.1,25.0,06.3,0000.0,0014.26,0003.72,0002.52
2021-12-06 18:35:00,,0826.5,5.03,0.00,23.3,22.6,00.0,32.1,25.0,06.4,0000.0,0013.00,0003.72,0002.53
2021-12-06 18:36:00,,0826.5,5.00,0.00,23.3,22.6,00.0,32.2,25.0,06.4,0000.0,0012.31,0003.73,0002.53
2021-12-06 18:37:00,,0826.3,5.00,0.00,23.3,22.6,00.0,32.2,25.0,06.3,0000.0,0013.06,0003.76,0002.55
2021-12-06 18:38:00,,0826.3,4.99,0.00,23.3,22.6,00.0,32.2,25.0,06.3,0000.0,0012.53,0003.75,0002.57
2021-12-06 18:39:00,,0826.2,5.00,0.00,23.3,22.6,00.0,32.2,25.0,06.3,0000.0,0012.10,0003.73,0002.58
2021-12-06 18:40:00,,0826.3,5.00,0.00,23.3,22.6,00.0,32.2,25.0,06.3,0000.0,0011.90,0003.69,0002.58
2021-12-06 18:41:00,,0826.2,5.01,0.00,23.3,22.6,00.0,32.2,25.0,06.3,0000.0,0012.62,0003.70,0002.57
2021-12-06 18:42:00,,0826.2,4.99,0.00,23.3,22.5,00.0,32.2,25.0,06.2,0000.0,0012.99,0003.69,0002.58
2021-12-06 18:43:00,,0826.1,5.02,0.00,23.3,22.5,00.0,32.2,25.1,06.2,0000.0,0012.56,0003.74,0002.59
2021-12-06 18:44:00,,0826.1,4.99,0.00,23.3,22.5,00.0,32.2,25.1,06.2,0000.0,0012.06,0003.73,0002.58
2021-12-06 18:45:00,,0826.2,5.01,0.00,23.3,22.6,00.0,32.2,25.0,06.3,0000.0,0012.57,0003.79,0002.59
2021-12-06 18:46:00,,0826.2,4.99,0.00,23.3,22.6,00.0,32.2,25.0,06.2,0000.0,0012.68,0003.83,0002.61
2021-12-06 18:47:00,,0826.2,5.00,0.00,23.3,22.6,00.0,32.2,25.1,06.2,0000.0,0013.62,0003.84,0002.61
2021-12-06 18:48:00,,0826.2,5.00,0.00,23.3,22.6,00.0,32.2,25.1,06.2,0000.0,0013.39,0003.80,0002.61
2021-12-06 18:49:00,,0826.1,5.00,0.00,23.3,22.6,00.0,32.2,25.1,06.2,0000.0,0013.42,0003.81,0002.63
2021-12-06 18:50:00,,0826.2,4.99,0.00,23.3,22.6,00.0,32.2,25.1,06.2,0000.0,0013.17,0003.80,0002.63
2021-12-06 18:51:00,,0826.1,5.00,0.00,23.4,22.6,00.0,32.2,25.1,06.2,0000.0,0013.13,0003.83,0002.64
2021-12-06 18:52:00,,0826.0,5.00,0.00,23.4,22.6,00.0,32.3,25.1,06.2,0000.0,0012.61,0003.84,0002.66
2021-12-06 18:53:00,,0826.0,5.01,0.00,23.4,22.6,00.0,32.3,25.1,06.2,0000.0,0012.72,0003.84,0002.67
2021-12-06 18:54:00,,0826.0,5.00,0.00,23.4,22.6,00.0,32.3,25.1,06.2,0000.0,0012.81,0003.88,0002.67
2021-12-06 18:55:00,,0826.0,5.00,0.00,23.4,22.6,00.0,32.3,25.1,06.2,0000.0,0013.59,0003.93,0002.68
2021-12-06 18:56:00,,0826.1,5.01,0.00,23.4,22.5,00.0,32.3,25.1,06.2,0000.0,0013.20,0003.93,0002.68
2021-12-06 18:57:00,,0826.0,4.99,0.00,23.3,22.5,00.0,32.3,25.1,06.2,0000.0,0013.05,0003.91,0002.66
2021-12-06 18:58:00,,0825.9,5.02,0.00,23.3,22.5,00.0,32.3,25.1,06.3,0000.0,0012.02,0003.88,0002.66
2021-12-06 18:59:00,,0825.6,4.98,0.00,23.3,22.4,00.0,32.3,25.0,06.3,0000.0,0011.40,0003.90,0002.65
